Погода в Хамине

Финляндия     60°34′10″N   27°11′53″E
темп.,
°C
ветер,
м/с
пор.,
м/с
влажн.,
%
обл.,
%
осадки,
мм/ч
давл.,
гПа
погр.,
м
27 ноября, сб
сб2723:00−4ссв3474100 0.0 1003359
02:00−4ссв5677100 0.0 1004310
05:00−4св567975 0.0 1005331
08:00−4св68825 0.0 1006373
11:00−4всв7107769 0.0 1007452
14:00−3св81277100 0.0 1006541
17:00−4св91379100 0.0 1005595
20:00−4св91575100 0.0 1005649
28 ноября, вс
вс2823:00−4св91475100 0.0 1004638
02:00−4св91476100 0.0 1003640
05:00−3св91369100 0.0 1002684
08:00−3св81269100 0.0 1003672
11:00−3св81168100 0.0 1004693
14:00−3св71066100 0.0 1005706
17:00−4св7967100 0.0 1006639
20:00−4всв677353 0.0 1008601
29 ноября, пн
пн2923:00−4всв6879100 0.0 1009511
02:00−4всв7979100 0.0 1009611
05:00−4всв71084100 0.0 1008621
08:00−4св81186100 0.1 1007604
11:00−3всв81181100 0.1 1006944
14:00−3всв91176100 0.2 1004946
17:00−4св91281100 0.1 1001900
20:00−4св101384100 0.1 997739
30 ноября, вт
вт3023:00−5св101490100 0.8 994631
02:00−5ссв101490100 1.8 991616
05:00−4ссв91389100 0.3 988749
08:00−4ссв91386100 0.7 986884
11:00−4с91283100 0.2 985858
14:00−4ссз91179100 0.3 984941
17:00−5ссз9117996 0.0 985850
20:00−5ссз81181100 0.0 985893
1 декабря, ср
ср123:00−5сз91182100 0.0 986926
02:00−5ссз91280100 0.1 988800
05:00−6сз8117971 0.0 989797
08:00−6сз8117970 0.0 992833
11:00−5сз812755 0.0 994835
14:00−5зсз79775 0.0 994731
17:00−5зсз68765 0.0 995629
20:00−4зсз56745 0.0 995549